This is the latest recevied weather packets stored in our database for station/object SP1BMW-13. If no packets are shown the sender has not sent any weather packets the latest 10 day(s).
| Time | Temp. | Humidity | Pressure | Rain* | Wind** | Luminosity | Snow |
|---|---|---|---|---|---|---|---|
| 1787904918 | 18.89° C | 61% | 1010.2 hPa | 0 mm | 1.79 m/s, 167° | 79 W/m² | - |
| 1787904858 | 18.89° C | 61% | 1010.1 hPa | 0 mm | 1.34 m/s, 129° | 78 W/m² | - |
| 1787904798 | 18.89° C | 61% | 1010.1 hPa | 0 mm | 0.89 m/s, 121° | 78 W/m² | - |
| 1787904738 | 18.89° C | 60% | 1010.1 hPa | 0 mm | 1.34 m/s, 43° | 78 W/m² | - |
| 1787904678 | 18.89° C | 61% | 1010.1 hPa | 0 mm | 0.89 m/s, 40° | 77 W/m² | - |
| 1787904618 | 18.89° C | 61% | 1010.4 hPa | 0 mm | 1.34 m/s, 53° | 76 W/m² | - |
| 1787904558 | 18.89° C | 60% | 1010.1 hPa | 0 mm | 1.34 m/s, 128° | 75 W/m² | - |
| 1787904498 | 18.89° C | 60% | 1010.3 hPa | 0 mm | 2.24 m/s, 105° | 75 W/m² | - |
| 1787904438 | 19.44° C | 60% | 1010.5 hPa | 0 mm | 0.89 m/s, 78° | 76 W/m² | - |
| 1787904378 | 19.44° C | 60% | 1010.5 hPa | 0 mm | 0.89 m/s, 73° | 77 W/m² | - |
| 1787904318 | 19.44° C | 60% | 1010.4 hPa | 0 mm | 2.24 m/s, 31° | 78 W/m² | - |
| 1787904258 | 19.44° C | 60% | 1010.5 hPa | 0 mm | 1.34 m/s, 55° | 78 W/m² | - |
| 1787904198 | 19.44° C | 60% | 1010.7 hPa | 0 mm | 1.34 m/s, 35° | 78 W/m² | - |
| 1787904138 | 19.44° C | 60% | 1010.6 hPa | 0 mm | 1.34 m/s, 44° | 78 W/m² | - |
| 1787904078 | 19.44° C | 60% | 1010.8 hPa | 0 mm | 1.79 m/s, 28° | 79 W/m² | - |
| 1787904018 | 19.44° C | 59% | 1010.8 hPa | 0 mm | 0.45 m/s, 16° | 80 W/m² | - |
| 1787903958 | 19.44° C | 59% | 1010.8 hPa | 0 mm | 2.24 m/s, 40° | 82 W/m² | - |
| 1787903898 | 19.44° C | 59% | 1010.9 hPa | 0 mm | 0.89 m/s, 21° | 85 W/m² | - |
| 1787903839 | 19.44° C | 59% | 1010.9 hPa | 0 mm | 1.34 m/s, 130° | 89 W/m² | - |
| 1787903778 | 19.44° C | 59% | 1010.8 hPa | 0 mm | 2.24 m/s, 20° | 92 W/m² | - |
| 1787903719 | 19.44° C | 60% | 1011.1 hPa | 0 mm | 0.89 m/s, 106° | 97 W/m² | - |
| 1787903658 | 19.44° C | 60% | 1011.2 hPa | 0 mm | 0.45 m/s, 34° | 101 W/m² | - |
| 1787903598 | 19.44° C | 60% | 1011.2 hPa | 0 mm | 0.45 m/s, 61° | 106 W/m² | - |
| 1787903538 | 19.44° C | 60% | 1011.4 hPa | 0 mm | 0.45 m/s, 103° | 110 W/m² | - |
| 1787903479 | 19.44° C | 59% | 1011.2 hPa | 0 mm | 1.79 m/s, 31° | 113 W/m² | - |
* Rain latest hour (hover to see other rain measurements)
** Current wind speed in m/s (hover to see current wind gust speed)